QPF
0.02 0.02 0.02 0.03 0.03 0.03 0.02 0.02 0.03 0.05 0.05 0.06 0.06 0.07 0.10 0.17 0.20 0.20 0.16 0.11 0.09 0.10 0.10 0.09 0.08 0.06 0.04 0.05 0.06 0.05 0.05 0.04 0.04 0.05 0.04 0.03 0.02 0.01 0.00 0.00 0.00 0.00 0.00
0.03 0.03 0.03 0.03 0.04 0.04 0.03 0.02 0.03 0.05 0.08 0.07 0.06 0.05 0.06 0.11 0.18 0.20 0.23 0.19 0.12 0.10 0.11 0.11 0.11 0.10 0.08 0.06 0.07 0.07 0.05 0.05 0.03 0.04 0.05 0.04 0.03 0.02 0.01 0.00 0.00 0.00 0.00
0.05 0.05 0.05 0.04 0.04 0.04 0.03 0.02 0.02 0.02 0.04 0.09 0.07 0.06 0.06 0.07 0.13 0.17 0.18 0.18 0.16 0.12 0.11 0.11 0.13 0.12 0.11 0.10 0.08 0.09 0.08 0.06 0.04 0.03 0.03 0.03 0.03 0.02 0.01 0.00 0.00 0.00 0.00
0.06 0.06 0.05 0.05 0.05 0.04 0.03 0.03 0.02 0.02 0.02 0.07 0.09 0.08 0.05 0.05 0.07 0.12 0.13 0.13 0.12 0.11 0.10 0.11 0.12 0.14 0.11 0.08 0.07 0.09 0.10 0.09 0.08 0.04 0.03 0.02 0.02 0.02 0.02 0.01 0.00 0.00 0.00
0.08 0.07 0.06 0.06 0.06 0.04 0.03 0.03 0.03 0.02 0.03 0.05 0.10 0.10 0.06 0.04 0.05 0.08 0.10 0.11 0.10 0.08 0.08 0.08 0.09 0.11 0.13 0.10 0.07 0.07 0.08 0.07 0.06 0.04 0.03 0.03 0.02 0.02 0.02 0.02 0.01 0.01 0.01
0.07 0.07 0.06 0.05 0.05 0.05 0.04 0.03 0.03 0.02 0.02 0.03 0.07 0.11 0.09 0.05 0.05 0.07 0.09 0.09 0.08 0.08 0.10 0.08 0.07 0.08 0.10 0.11 0.08 0.06 0.05 0.04 0.04 0.03 0.02 0.03 0.03 0.02 0.02 0.02 0.01 0.01 0.01
0.06 0.06 0.05 0.05 0.05 0.06 0.05 0.03 0.03 0.02 0.02 0.02 0.03 0.08 0.11 0.07 0.05 0.06 0.08 0.09 0.08 0.06 0.08 0.12 0.09 0.08 0.07 0.08 0.08 0.07 0.04 0.03 0.02 0.02 0.01 0.02 0.02 0.02 0.02 0.02 0.01 0.01 0.01
0.03 0.05 0.05 0.05 0.05 0.06 0.06 0.04 0.03 0.02 0.02 0.02 0.02 0.05 0.08 0.08 0.06 0.07 0.08 0.10 0.09 0.05 0.04 0.07 0.11 0.10 0.09 0.07 0.08 0.07 0.04 0.03 0.02 0.01 0.01 0.01 0.02 0.02 0.01 0.02 0.02 0.01 0.01
0.02 0.02 0.04 0.05 0.06 0.06 0.07 0.05 0.04 0.03 0.03 0.03 0.02 0.03 0.06 0.07 0.06 0.08 0.08 0.09 0.10 0.06 0.04 0.05 0.08 0.09 0.10 0.09 0.08 0.07 0.05 0.04 0.02 0.01 0.01 0.01 0.02 0.02 0.02 0.01 0.02 0.02 0.02
0.01 0.02 0.02 0.03 0.06 0.08 0.08 0.08 0.05 0.05 0.05 0.04 0.04 0.03 0.04 0.06 0.05 0.08 0.09 0.08 0.09 0.07 0.04 0.04 0.07 0.08 0.08 0.09 0.09 0.08 0.05 0.05 0.03 0.01 0.01 0.01 0.01 0.02 0.02 0.02 0.02 0.02 0.02
0.01 0.02 0.02 0.02 0.04 0.06 0.07 0.10 0.08 0.06 0.06 0.06 0.05 0.05 0.04 0.05 0.06 0.07 0.10 0.08 0.09 0.07 0.05 0.03 0.05 0.07 0.08 0.09 0.09 0.08 0.06 0.05 0.05 0.03 0.02 0.02 0.02 0.02 0.02 0.02 0.02 0.02 0.02
0.02 0.02 0.02 0.01 0.03 0.05 0.06 0.08 0.08 0.07 0.08 0.08 0.07 0.06 0.05 0.05 0.06 0.06 0.10 0.09 0.08 0.08 0.05 0.05 0.04 0.05 0.05 0.07 0.10 0.09 0.07 0.05 0.04 0.04 0.03 0.02 0.02 0.03 0.02 0.02 0.02 0.02 0.02
0.01 0.01 0.02 0.01 0.02 0.03 0.06 0.07 0.08 0.09 0.11 0.12 0.11 0.09 0.08 0.06 0.06 0.07 0.10 0.10 0.08 0.07 0.05 0.06 0.07 0.07 0.06 0.05 0.06 0.09 0.09 0.07 0.05 0.04 0.03 0.03 0.03 0.03 0.02 0.02 0.02 0.02 0.02
0.01 0.01 0.02 0.01 0.01 0.02 0.03 0.06 0.08 0.08 0.10 0.12 0.12 0.12 0.11 0.10 0.07 0.07 0.11 0.12 0.09 0.07 0.05 0.04 0.07 0.08 0.07 0.07 0.06 0.07 0.09 0.08 0.07 0.06 0.05 0.04 0.03 0.03 0.02 0.03 0.03 0.03 0.02
0.01 0.01 0.01 0.00 0.01 0.01 0.02 0.03 0.06 0.08 0.09 0.10 0.10 0.12 0.13 0.13 0.11 0.10 0.11 0.14 0.12 0.08 0.06 0.05 0.05 0.07 0.07 0.06 0.06 0.06 0.07 0.08 0.08 0.07 0.07 0.06 0.05 0.04 0.04 0.03 0.03 0.03 0.03
0.02 0.01 0.01 0.01 0.01 0.01 0.01 0.02 0.04 0.07 0.10 0.10 0.10 0.11 0.12 0.13 0.14 0.14 0.14 0.15 0.13 0.09 0.07 0.06 0.04 0.05 0.06 0.06 0.05 0.05 0.06 0.06 0.06 0.07 0.07 0.07 0.07 0.07 0.05 0.04 0.04 0.03 0.03
0.02 0.02 0.01 0.01 0.01 0.01 0.02 0.03 0.03 0.06 0.09 0.10 0.10 0.10 0.09 0.09 0.10 0.13 0.15 0.14 0.12 0.09 0.07 0.06 0.05 0.04 0.05 0.05 0.05 0.04 0.04 0.04 0.04 0.05 0.06 0.06 0.07 0.07 0.06 0.05 0.04 0.03 0.03
0.03 0.02 0.02 0.02 0.02 0.02 0.02 0.03 0.04 0.05 0.08 0.09 0.09 0.08 0.07 0.08 0.08 0.08 0.10 0.11 0.11 0.09 0.07 0.06 0.06 0.04 0.04 0.05 0.05 0.04 0.03 0.03 0.03 0.03 0.04 0.04 0.05 0.05 0.05 0.05 0.04 0.03 0.03
0.04 0.04 0.03 0.02 0.02 0.02 0.02 0.03 0.05 0.06 0.07 0.08 0.08 0.08 0.07 0.06 0.06 0.07 0.07 0.07 0.07 0.06 0.06 0.06 0.05 0.04 0.04 0.04 0.04 0.04 0.03 0.03 0.03 0.03 0.03 0.03 0.03 0.03 0.03 0.03 0.03 0.03 0.02
0.05 0.04 0.03 0.02 0.02 0.02 0.02 0.04 0.04 0.05 0.06 0.07 0.08 0.08 0.07 0.05 0.04 0.05 0.06 0.07 0.06 0.05 0.05 0.04 0.04 0.05 0.05 0.05 0.04 0.03 0.03 0.03 0.03 0.03 0.03 0.03 0.03 0.03 0.03 0.02 0.02 0.03 0.02
0.03 0.03 0.02 0.02 0.02 0.02 0.02 0.02 0.03 0.04 0.05 0.06 0.07 0.07 0.06 0.05 0.04 0.04 0.04 0.06 0.07 0.05 0.04 0.04 0.04 0.04 0.05 0.05 0.04 0.04 0.03 0.03 0.02 0.02 0.03 0.03 0.03 0.03 0.03 0.03 0.02 0.02 0.02
0.02 0.02 0.01 0.01 0.01 0.02 0.02 0.02 0.02 0.04 0.05 0.05 0.05 0.05 0.06 0.05 0.05 0.04 0.04 0.05 0.06 0.06 0.05 0.04 0.04 0.05 0.05 0.05 0.04 0.04 0.04 0.03 0.03 0.02 0.02 0.02 0.02 0.03 0.03 0.02 0.03 0.03 0.02
0.02 0.02 0.02 0.01 0.02 0.02 0.02 0.02 0.02 0.04 0.04 0.04 0.05 0.05 0.05 0.05 0.05 0.05 0.04 0.05 0.05 0.07 0.07 0.06 0.06 0.06 0.05 0.06 0.06 0.05 0.04 0.04 0.03 0.02 0.02 0.02 0.02 0.02 0.02 0.02 0.03 0.02 0.02
0.03 0.03 0.02 0.02 0.03 0.02 0.02 0.03 0.03 0.04 0.04 0.04 0.05 0.06 0.06 0.06 0.06 0.06 0.05 0.05 0.05 0.06 0.06 0.06 0.07 0.06 0.06 0.06 0.06 0.05 0.05 0.04 0.04 0.03 0.03 0.03 0.02 0.03 0.03 0.03 0.03 0.03 0.02
0.04 0.04 0.03 0.03 0.03 0.03 0.03 0.03 0.04 0.04 0.04 0.03 0.04 0.05 0.06 0.05 0.05 0.06 0.06 0.06 0.06 0.06 0.06 0.07 0.06 0.06 0.07 0.07 0.06 0.05 0.04 0.04 0.04 0.03 0.03 0.03 0.04 0.04 0.04 0.03 0.03 0.03 0.03
0.03 0.03 0.03 0.03 0.03 0.03 0.03 0.03 0.04 0.04 0.04 0.03 0.03 0.04 0.05 0.05 0.05 0.05 0.06 0.07 0.07 0.07 0.07 0.07 0.06 0.06 0.07 0.06 0.06 0.05 0.05 0.05 0.05 0.03 0.03 0.03 0.04 0.05 0.04 0.04 0.03 0.03 0.03
MSLP
1027.12 1027.36 1027.55 1027.66 1027.67 1027.58 1027.40 1027.15 1026.87 1026.59 1026.33 1026.12 1025.95 1025.84 1025.77 1025.71 1025.66 1025.58 1025.47 1025.31 1025.12 1024.89 1024.64 1024.38 1024.13 1023.90 1023.68 1023.46 1023.25 1023.02 1022.77 1022.50 1022.19 1021.87 1021.55 1021.25 1020.98 1020.77 1020.62 1020.54 1020.52 1020.54 1020.58
1026.66 1027.04 1027.35 1027.56 1027.65 1027.61 1027.47 1027.26 1027.03 1026.80 1026.60 1026.45 1026.34 1026.27 1026.22 1026.17 1026.09 1025.97 1025.82 1025.64 1025.44 1025.24 1025.04 1024.86 1024.69 1024.53 1024.37 1024.19 1023.98 1023.73 1023.44 1023.09 1022.72 1022.33 1021.94 1021.58 1021.26 1020.99 1020.79 1020.66 1020.59 1020.57 1020.59
1026.03 1026.56 1027.00 1027.31 1027.48 1027.50 1027.41 1027.25 1027.07 1026.91 1026.78 1026.71 1026.68 1026.66 1026.64 1026.58 1026.49 1026.34 1026.16 1025.97 1025.77 1025.60 1025.46 1025.35 1025.27 1025.19 1025.09 1024.96 1024.76 1024.51 1024.18 1023.81 1023.39 1022.96 1022.53 1022.13 1021.76 1021.44 1021.18 1020.97 1020.83 1020.73 1020.69
1025.24 1025.90 1026.47 1026.88 1027.13 1027.21 1027.18 1027.08 1026.97 1026.89 1026.85 1026.87 1026.92 1026.97 1026.99 1026.96 1026.85 1026.70 1026.50 1026.30 1026.11 1025.97 1025.89 1025.85 1025.84 1025.84 1025.81 1025.72 1025.56 1025.31 1025.00 1024.62 1024.20 1023.76 1023.32 1022.89 1022.49 1022.13 1021.79 1021.50 1021.26 1021.06 1020.91
1024.32 1025.11 1025.79 1026.30 1026.61 1026.76 1026.78 1026.75 1026.71 1026.72 1026.79 1026.91 1027.05 1027.18 1027.26 1027.26 1027.17 1027.01 1026.81 1026.61 1026.45 1026.34 1026.30 1026.33 1026.38 1026.44 1026.47 1026.43 1026.30 1026.10 1025.81 1025.46 1025.07 1024.66 1024.24 1023.82 1023.41 1023.01 1022.61 1022.23 1021.87 1021.55 1021.27
1023.34 1024.25 1025.02 1025.60 1025.98 1026.18 1026.25 1026.28 1026.32 1026.42 1026.58 1026.81 1027.05 1027.26 1027.41 1027.45 1027.39 1027.25 1027.07 1026.88 1026.74 1026.66 1026.66 1026.73 1026.84 1026.95 1027.02 1027.02 1026.94 1026.78 1026.54 1026.24 1025.91 1025.55 1025.18 1024.80 1024.41 1023.99 1023.54 1023.08 1022.62 1022.17 1021.77
1022.41 1023.39 1024.23 1024.87 1025.28 1025.51 1025.63 1025.70 1025.81 1025.98 1026.24 1026.56 1026.89 1027.19 1027.40 1027.50 1027.48 1027.37 1027.21 1027.05 1026.93 1026.89 1026.92 1027.02 1027.16 1027.30 1027.40 1027.44 1027.40 1027.28 1027.09 1026.86 1026.60 1026.32 1026.03 1025.71 1025.35 1024.94 1024.48 1023.97 1023.43 1022.89 1022.37
1021.59 1022.62 1023.49 1024.14 1024.56 1024.81 1024.94 1025.05 1025.21 1025.44 1025.77 1026.16 1026.57 1026.94 1027.21 1027.36 1027.39 1027.32 1027.20 1027.07 1026.98 1026.97 1027.02 1027.15 1027.30 1027.46 1027.58 1027.63 1027.62 1027.54 1027.41 1027.24 1027.06 1026.87 1026.66 1026.42 1026.12 1025.76 1025.31 1024.79 1024.21 1023.61 1023.01
1020.91 1021.94 1022.80 1023.43 1023.84 1024.08 1024.21 1024.34 1024.52 1024.80 1025.18 1025.62 1026.08 1026.50 1026.82 1027.02 1027.10 1027.07 1026.99 1026.90 1026.85 1026.86 1026.95 1027.09 1027.25 1027.41 1027.53 1027.59 1027.59 1027.54 1027.45 1027.35 1027.24 1027.13 1027.01 1026.85 1026.63 1026.33 1025.93 1025.43 1024.86 1024.25 1023.64
1020.35 1021.33 1022.13 1022.72 1023.09 1023.30 1023.42 1023.55 1023.75 1024.05 1024.45 1024.93 1025.42 1025.87 1026.23 1026.47 1026.58 1026.61 1026.58 1026.54 1026.53 1026.58 1026.69 1026.85 1027.02 1027.17 1027.29 1027.34 1027.34 1027.30 1027.24 1027.18 1027.13 1027.09 1027.05 1026.97 1026.83 1026.61 1026.28 1025.84 1025.32 1024.75 1024.16
1019.82 1020.72 1021.44 1021.94 1022.25 1022.42 1022.53 1022.65 1022.86 1023.17 1023.59 1024.08 1024.59 1025.05 1025.44 1025.71 1025.86 1025.93 1025.96 1025.98 1026.03 1026.13 1026.27 1026.44 1026.62 1026.77 1026.87 1026.92 1026.92 1026.88 1026.83 1026.80 1026.79 1026.80 1026.82 1026.81 1026.75 1026.60 1026.34 1025.98 1025.54 1025.03 1024.50
1019.25 1020.02 1020.63 1021.04 1021.28 1021.41 1021.50 1021.62 1021.84 1022.17 1022.60 1023.09 1023.61 1024.08 1024.48 1024.78 1024.97 1025.10 1025.19 1025.27 1025.38 1025.53 1025.72 1025.92 1026.11 1026.26 1026.36 1026.39 1026.38 1026.34 1026.30 1026.28 1026.30 1026.34 1026.40 1026.44 1026.42 1026.34 1026.15 1025.87 1025.50 1025.08 1024.62
1018.54 1019.17 1019.65 1019.96 1020.14 1020.23 1020.31 1020.45 1020.68 1021.03 1021.48 1021.99 1022.51 1022.99 1023.41 1023.73 1023.97 1024.15 1024.31 1024.46 1024.64 1024.85 1025.09 1025.32 1025.52 1025.68 1025.77 1025.80 1025.78 1025.74 1025.70 1025.69 1025.71 1025.77 1025.85 1025.92 1025.94 1025.89 1025.76 1025.53 1025.23 1024.87 1024.49
1017.69 1018.16 1018.51 1018.72 1018.83 1018.90 1018.99 1019.15 1019.42 1019.80 1020.28 1020.80 1021.34 1021.84 1022.27 1022.63 1022.91 1023.15 1023.37 1023.60 1023.85 1024.11 1024.39 1024.65 1024.88 1025.04 1025.13 1025.16 1025.14 1025.09 1025.06 1025.05 1025.08 1025.15 1025.24 1025.31 1025.35 1025.32 1025.20 1025.01 1024.74 1024.43 1024.10
1016.72 1017.03 1017.24 1017.35 1017.41 1017.47 1017.59 1017.79 1018.11 1018.54 1019.05 1019.60 1020.16 1020.68 1021.13 1021.52 1021.85 1022.15 1022.43 1022.72 1023.02 1023.34 1023.66 1023.94 1024.18 1024.34 1024.43 1024.46 1024.44 1024.40 1024.37 1024.37 1024.41 1024.49 1024.57 1024.65 1024.68 1024.64 1024.53 1024.34 1024.09 1023.79 1023.49
1015.70 1015.85 1015.93 1015.97 1015.99 1016.05 1016.19 1016.45 1016.83 1017.31 1017.86 1018.45 1019.03 1019.57 1020.05 1020.47 1020.84 1021.18 1021.51 1021.85 1022.20 1022.55 1022.89 1023.18 1023.42 1023.58 1023.67 1023.69 1023.67 1023.64 1023.62 1023.63 1023.68 1023.76 1023.85 1023.91 1023.93 1023.88 1023.75 1023.55 1023.29 1022.99 1022.69
1014.71 1014.72 1014.69 1014.65 1014.65 1014.72 1014.90 1015.21 1015.65 1016.18 1016.78 1017.40 1018.00 1018.55 1019.05 1019.49 1019.89 1020.27 1020.64 1021.01 1021.39 1021.75 1022.09 1022.38 1022.60 1022.74 1022.81 1022.82 1022.80 1022.78 1022.77 1022.80 1022.86 1022.94 1023.03 1023.09 1023.10 1023.03 1022.88 1022.66 1022.38 1022.07 1021.75
1013.82 1013.71 1013.58 1013.49 1013.48 1013.57 1013.80 1014.16 1014.64 1015.22 1015.85 1016.48 1017.09 1017.66 1018.17 1018.62 1019.04 1019.44 1019.83 1020.21 1020.59 1020.96 1021.28 1021.54 1021.73 1021.84 1021.88 1021.87 1021.84 1021.81 1021.81 1021.85 1021.92 1022.02 1022.11 1022.17 1022.17 1022.09 1021.92 1021.67 1021.37 1021.05 1020.72
1013.03 1012.82 1012.63 1012.52 1012.50 1012.62 1012.89 1013.30 1013.83 1014.43 1015.08 1015.72 1016.33 1016.89 1017.39 1017.85 1018.28 1018.68 1019.08 1019.46 1019.84 1020.18 1020.47 1020.69 1020.84 1020.91 1020.91 1020.87 1020.82 1020.77 1020.77 1020.80 1020.88 1020.98 1021.07 1021.13 1021.12 1021.03 1020.85 1020.60 1020.29 1019.95 1019.62
1012.29 1012.02 1011.81 1011.69 1011.70 1011.86 1012.17 1012.61 1013.17 1013.79 1014.44 1015.07 1015.67 1016.22 1016.71 1017.17 1017.59 1017.99 1018.39 1018.77 1019.13 1019.44 1019.70 1019.88 1019.98 1020.00 1019.96 1019.88 1019.79 1019.72 1019.69 1019.71 1019.77 1019.86 1019.94 1019.98 1019.97 1019.87 1019.69 1019.44 1019.12 1018.79 1018.45
1011.54 1011.25 1011.05 1010.96 1011.01 1011.22 1011.57 1012.05 1012.63 1013.26 1013.90 1014.52 1015.09 1015.62 1016.10 1016.55 1016.96 1017.37 1017.76 1018.13 1018.48 1018.77 1019.00 1019.14 1019.20 1019.17 1019.08 1018.96 1018.82 1018.71 1018.65 1018.63 1018.65 1018.71 1018.76 1018.78 1018.74 1018.64 1018.45 1018.19 1017.88 1017.55 1017.23
1010.69 1010.43 1010.27 1010.24 1010.36 1010.63 1011.03 1011.55 1012.14 1012.77 1013.40 1014.00 1014.56 1015.06 1015.53 1015.97 1016.39 1016.80 1017.19 1017.57 1017.90 1018.18 1018.39 1018.50 1018.52 1018.45 1018.32 1018.15 1017.97 1017.81 1017.68 1017.61 1017.58 1017.58 1017.58 1017.55 1017.48 1017.35 1017.14 1016.88 1016.58 1016.25 1015.93
1009.74 1009.54 1009.45 1009.50 1009.70 1010.04 1010.50 1011.05 1011.66 1012.29 1012.90 1013.49 1014.03 1014.53 1015.00 1015.44 1015.86 1016.28 1016.68 1017.06 1017.40 1017.67 1017.86 1017.95 1017.94 1017.84 1017.67 1017.46 1017.23 1017.02 1016.83 1016.69 1016.59 1016.51 1016.44 1016.35 1016.22 1016.05 1015.81 1015.53 1015.22 1014.90 1014.58
1008.70 1008.58 1008.58 1008.72 1009.01 1009.42 1009.93 1010.52 1011.15 1011.78 1012.40 1012.98 1013.52 1014.02 1014.49 1014.94 1015.38 1015.82 1016.23 1016.62 1016.95 1017.22 1017.40 1017.47 1017.45 1017.32 1017.12 1016.87 1016.60 1016.33 1016.08 1015.87 1015.69 1015.53 1015.37 1015.21 1015.01 1014.77 1014.50 1014.19 1013.85 1013.52 1013.19
1007.65 1007.62 1007.72 1007.96 1008.32 1008.80 1009.36 1009.98 1010.63 1011.27 1011.89 1012.48 1013.03 1013.54 1014.03 1014.50 1014.96 1015.41 1015.83 1016.22 1016.55 1016.81 1016.97 1017.03 1016.98 1016.83 1016.61 1016.33 1016.02 1015.71 1015.40 1015.12 1014.86 1014.62 1014.39 1014.14 1013.87 1013.57 1013.24 1012.89 1012.52 1012.16 1011.81
1006.73 1006.78 1006.96 1007.28 1007.70 1008.23 1008.82 1009.46 1010.12 1010.78 1011.41 1012.01 1012.58 1013.12 1013.64 1014.13 1014.61 1015.07 1015.49 1015.87 1016.19 1016.41 1016.55 1016.58 1016.50 1016.33 1016.08 1015.78 1015.44 1015.09 1014.75 1014.42 1014.10 1013.79 1013.49 1013.17 1012.83 1012.47 1012.08 1011.68 1011.27 1010.88 1010.50
Thickness
5518 5521 5525 5528 5533 5538 5544 5551 5557 5561 5567 5573 5577 5581 5585 5588 5592 5596 5600 5603 5605 5608 5610 5611 5613 5615 5617 5617 5618 5617 5618 5618 5618 5617 5615 5615 5617 5619 5619 5620 5621 5621 5622
5505 5508 5511 5515 5520 5526 5532 5540 5546 5551 5556 5562 5567 5572 5576 5579 5583 5586 5590 5594 5596 5599 5601 5604 5605 5608 5609 5610 5611 5611 5610 5611 5612 5612 5611 5610 5609 5611 5613 5614 5615 5615 5616
5490 5494 5498 5502 5508 5514 5521 5530 5536 5541 5547 5552 5557 5562 5567 5569 5572 5576 5580 5584 5588 5590 5593 5596 5597 5600 5602 5604 5604 5605 5606 5606 5605 5607 5608 5607 5606 5605 5605 5607 5608 5609 5609
5477 5482 5486 5491 5496 5504 5510 5518 5525 5531 5537 5542 5548 5553 5558 5561 5565 5568 5572 5575 5579 5581 5585 5587 5589 5592 5594 5596 5598 5599 5600 5600 5599 5599 5601 5604 5604 5602 5600 5600 5601 5602 5603
5465 5470 5475 5480 5485 5492 5500 5507 5514 5521 5527 5533 5539 5544 5549 5553 5556 5559 5562 5566 5570 5573 5576 5578 5580 5583 5586 5588 5590 5592 5592 5594 5595 5594 5594 5595 5596 5597 5597 5596 5595 5596 5597
5454 5458 5464 5469 5475 5482 5489 5496 5504 5511 5518 5524 5530 5535 5539 5544 5547 5550 5553 5557 5561 5565 5567 5570 5572 5574 5578 5580 5583 5585 5586 5586 5588 5589 5590 5591 5591 5591 5591 5590 5590 5590 5591
5442 5447 5452 5458 5464 5471 5478 5485 5493 5501 5508 5514 5520 5525 5530 5534 5539 5542 5545 5548 5552 5555 5558 5561 5564 5566 5570 5573 5576 5578 5579 5580 5581 5583 5584 5585 5587 5587 5586 5585 5583 5583 5583
5430 5435 5442 5448 5454 5462 5468 5475 5483 5490 5497 5504 5510 5515 5520 5524 5529 5533 5536 5540 5544 5547 5550 5553 5555 5558 5561 5565 5568 5571 5572 5573 5575 5577 5577 5577 5579 5580 5581 5580 5577 5576 5575
5420 5426 5433 5440 5446 5453 5459 5466 5473 5480 5487 5494 5499 5505 5510 5514 5519 5523 5527 5530 5535 5538 5541 5545 5547 5550 5553 5556 5560 5562 5564 5566 5568 5569 5569 5570 5571 5572 5573 5574 5573 5572 5570
5411 5417 5423 5429 5437 5444 5450 5456 5463 5470 5477 5483 5488 5495 5501 5506 5510 5513 5517 5521 5525 5529 5532 5536 5539 5542 5544 5548 5551 5553 5556 5558 5559 5560 5561 5562 5563 5563 5564 5565 5566 5566 5566
5402 5407 5413 5420 5428 5435 5441 5447 5453 5459 5465 5472 5478 5484 5490 5495 5500 5504 5508 5512 5516 5520 5524 5528 5530 5533 5536 5539 5542 5545 5548 5550 5552 5553 5554 5555 5555 5555 5555 5556 5556 5557 5557
5393 5398 5404 5411 5417 5424 5431 5437 5442 5449 5456 5462 5468 5474 5480 5485 5490 5494 5499 5502 5506 5511 5514 5518 5521 5524 5527 5531 5534 5536 5539 5542 5545 5545 5545 5547 5547 5547 5546 5546 5547 5548 5548
5386 5390 5395 5402 5407 5414 5420 5426 5432 5439 5446 5452 5458 5464 5470 5475 5479 5484 5489 5492 5497 5501 5505 5508 5512 5515 5519 5522 5525 5527 5530 5534 5536 5536 5537 5539 5538 5539 5538 5538 5538 5539 5539
5377 5381 5386 5392 5398 5403 5409 5415 5421 5428 5436 5443 5449 5455 5460 5465 5470 5474 5479 5483 5487 5490 5495 5499 5503 5506 5510 5513 5516 5518 5521 5524 5526 5528 5529 5530 5531 5531 5530 5530 5530 5530 5529
5370 5373 5377 5382 5387 5393 5399 5405 5411 5418 5426 5434 5440 5445 5451 5456 5461 5465 5468 5472 5476 5481 5485 5489 5493 5497 5500 5503 5506 5509 5511 5514 5516 5517 5520 5521 5522 5522 5522 5522 5521 5520 5520
5362 5366 5369 5374 5378 5383 5389 5396 5403 5410 5417 5424 5430 5436 5441 5447 5452 5456 5459 5462 5466 5470 5475 5479 5483 5487 5491 5494 5497 5499 5501 5503 5505 5507 5508 5509 5511 5511 5512 5513 5513 5512 5511
5353 5356 5360 5365 5370 5374 5380 5386 5394 5402 5409 5415 5421 5426 5431 5437 5442 5446 5450 5452 5456 5459 5464 5469 5473 5477 5481 5484 5486 5488 5490 5493 5494 5495 5496 5498 5499 5500 5501 5501 5501 5501 5501
5344 5348 5352 5357 5362 5366 5372 5379 5386 5393 5399 5406 5412 5417 5422 5427 5431 5434 5439 5442 5445 5448 5453 5458 5462 5467 5470 5473 5475 5478 5479 5481 5482 5484 5485 5486 5487 5488 5489 5489 5488 5489 5490
5337 5340 5345 5349 5355 5360 5366 5372 5378 5384 5391 5397 5402 5407 5412 5417 5420 5424 5427 5431 5434 5437 5441 5446 5451 5455 5458 5461 5465 5467 5467 5469 5470 5471 5473 5474 5475 5477 5477 5477 5476 5477 5477
5330 5334 5339 5343 5348 5353 5358 5364 5369 5375 5381 5387 5392 5397 5401 5406 5410 5414 5416 5419 5423 5427 5430 5435 5438 5442 5446 5450 5454 5455 5457 5458 5458 5459 5461 5463 5464 5464 5465 5465 5465 5465 5465
5325 5329 5332 5336 5341 5346 5350 5355 5361 5366 5372 5377 5383 5389 5393 5396 5400 5403 5406 5409 5413 5417 5420 5423 5426 5429 5433 5437 5441 5443 5444 5446 5446 5447 5449 5451 5452 5453 5453 5453 5453 5454 5454
5319 5322 5325 5329 5333 5337 5342 5348 5352 5357 5363 5368 5375 5380 5384 5387 5390 5394 5396 5400 5403 5405 5408 5410 5413 5417 5420 5424 5427 5430 5432 5434 5435 5436 5438 5439 5440 5440 5440 5440 5441 5442 5441
5310 5313 5316 5321 5325 5329 5334 5339 5344 5348 5353 5359 5365 5370 5375 5378 5382 5385 5387 5389 5392 5395 5397 5399 5402 5406 5409 5412 5415 5417 5418 5420 5422 5424 5426 5426 5427 5427 5427 5427 5428 5428 5427
5301 5304 5308 5312 5318 5322 5325 5329 5334 5339 5344 5349 5355 5360 5365 5369 5373 5376 5378 5380 5383 5385 5387 5389 5392 5395 5397 5400 5403 5405 5407 5408 5409 5411 5412 5413 5413 5414 5414 5414 5414 5415 5415
5293 5296 5299 5304 5308 5313 5317 5321 5325 5330 5335 5340 5345 5349 5354 5358 5362 5366 5368 5371 5374 5376 5378 5381 5384 5386 5388 5391 5393 5396 5398 5399 5400 5400 5400 5400 5400 5400 5401 5402 5402 5402 5402
5285 5288 5292 5296 5300 5304 5309 5313 5316 5320 5325 5330 5335 5339 5343 5347 5351 5355 5358 5361 5364 5367 5369 5372 5375 5377 5379 5381 5384 5386 5388 5389 5390 5390 5389 5389 5389 5390 5390 5390 5390 5389 5389